Location: Utrecht
(52.0907°N, 5.1214°E)
Time: 12:27:10
(UTC+02:00)

SPROUT - Pass Details

Date: 08 July 2022
Orbit: 588 x 598 km, 97.9° (Epoch: 17 August)

Event Time Altitude Azimuth Distance (km) Brightness Sun altitude
Exits shadow 01:49:03 19° 138° (SE) 1,437 ? -15.4°
Maximum altitude 01:51:50 50° 69° (ENE) 759 ? -15.4°
Drops below altitude 10° 01:55:53 10° 355° (N) 1,935 ? -15.4°
Sets 01:58:06 0° 350° (N) 2,843 ? -15.4°
